CAPE
25 0 0 1 1 0 3 0 0 0 0 0 0 0 5 0 0 0 0 54 225 177 92 0 0 0 0 0 0 0 0 0 0 0 0 0 0 0 0 0 0 0 0
58 1 0 0 0 1 0 0 0 0 0 0 0 0 0 0 0 0 69 122 187 231 57 39 4 0 0 0 0 0 0 0 0 0 0 0 0 0 0 0 0 0 0
55 19 0 0 0 0 0 0 0 0 0 0 0 0 0 0 0 0 52 117 185 192 148 46 4 0 0 0 0 0 0 0 0 0 0 0 0 0 0 0 0 0 0
14 12 2 0 0 0 0 0 0 0 0 0 0 0 0 0 0 0 26 100 160 214 198 96 14 0 0 0 0 0 0 0 0 0 0 0 0 0 0 0 0 0 0
7 0 0 0 0 0 0 0 0 0 12 22 23 11 0 0 0 62 144 175 168 164 183 187 29 0 0 0 0 0 0 0 0 0 0 0 0 0 0 0 0 0 0
56 5 0 0 0 0 0 0 0 2 37 45 50 18 0 0 0 24 208 213 163 219 159 80 0 0 0 0 0 0 0 0 0 0 0 0 0 0 0 0 0 0 0
42 33 7 0 0 0 0 0 0 6 77 124 109 9 0 0 0 8 234 202 79 51 12 1 0 0 0 0 0 0 0 0 0 0 0 0 0 0 0 0 0 0 0
30 72 48 35 4 0 0 0 34 68 108 175 165 82 17 0 5 28 111 144 100 56 2 0 0 0 0 0 0 0 0 0 0 0 0 0 0 0 0 0 0 0 0
140 28 131 113 119 127 10 23 299 186 209 205 261 90 170 61 24 10 45 66 14 0 0 0 0 0 0 0 0 0 0 0 0 0 0 0 0 0 0 0 0 0 0
23 166 143 129 59 127 227 227 297 444 357 285 387 451 272 249 260 169 61 2 5 0 0 0 0 0 0 0 0 1 0 0 0 0 0 0 0 0 0 0 0 0 0
21 26 0 69 198 85 146 330 330 333 338 302 290 507 562 472 421 157 0 0 0 0 0 0 1 0 0 0 0 0 0 0 0 0 0 0 0 0 0 0 0 0 0
0 5 36 0 139 224 323 402 475 553 635 494 316 524 480 194 36 0 0 0 0 0 0 1 0 0 0 0 0 0 0 0 0 0 0 0 0 0 0 0 0 0 0
0 0 6 41 2 170 411 584 702 462 15 441 426 203 0 0 0 0 0 1 1 3 3 0 0 0 0 0 0 0 0 0 0 0 0 0 0 0 0 0 0 0 0
0 9 20 19 17 205 242 138 24 60 0 0 0 0 2 0 2 0 2 0 0 0 0 0 0 0 0 0 0 0 0 0 0 0 0 0 0 0 0 0 0 0 0
0 0 0 1 283 65 0 0 0 0 0 1 0 1 1 0 0 0 0 0 0 0 0 0 0 0 0 0 0 0 0 0 0 0 0 0 0 0 0 0 0 0 0
0 6 14 341 174 3 0 0 0 1 0 1 3 1 0 0 0 0 0 2 0 0 0 0 0 0 0 0 0 0 0 0 0 0 0 0 0 0 0 0 0 0 0
0 58 613 338 3 0 0 0 0 0 0 0 1 1 1 1 2 0 0 0 0 0 0 0 0 0 0 0 0 0 0 0 0 0 0 0 0 0 0 0 0 0 0
0 255 88 0 0 0 0 0 0 0 0 1 1 2 1 2 0 0 0 0 0 0 0 0 0 0 0 0 0 0 0 0 0 0 0 0 0 0 0 0 0 0 0
4 18 0 0 0 0 0 0 0 0 1 1 1 0 0 0 0 0 0 0 0 0 0 0 0 0 0 0 0 0 0 0 0 0 0 0 0 0 0 0 0 0 0
0 0 0 0 0 0 0 0 0 0 0 0 0 0 0 0 0 0 0 0 0 0 0 0 0 0 0 0 0 0 0 0 0 0 0 0 0 0 0 0 0 0 0
0 0 0 0 0 0 0 0 0 0 0 0 0 0 0 0 0 0 0 0 0 0 0 0 0 0 0 0 0 0 0 0 0 0 0 0 0 0 0 0 0 0 1
0 0 0 0 0 0 0 0 0 0 0 0 0 0 0 0 0 0 0 0 0 0 0 0 0 0 0 0 0 0 0 0 0 0 0 0 0 0 0 0 7 5 0
0 0 0 0 0 0 0 0 0 0 0 0 0 0 0 0 0 0 0 0 0 0 0 0 0 0 0 0 0 0 0 0 0 0 0 0 0 0 0 0 0 0 0
0 0 0 0 0 0 0 0 0 0 0 0 0 0 0 0 0 0 0 0 0 0 0 0 0 0 0 0 0 0 0 0 0 0 0 0 0 0 0 0 0 0 0
0 0 0 0 0 0 0 0 0 0 0 0 0 0 0 0 0 0 0 0 0 0 0 0 0 0 0 0 0 0 0 0 0 0 0 0 0 0 0 0 0 0 0
0 0 0 0 0 0 0 0 0 0 0 0 0 0 0 0 0 0 0 0 0 0 0 0 0 0 0 0 0 0 0 0 0 0 0 0 0 0 0 0 0 0 0
CIN
-330 0 0 0 0 0 0 0 0 0 0 0 0 0 -31 -1 -1 0 0 -81 -60 -83 -100 0 0 0 0 0 0 0 0 0 0 0 0 0 0 0 0 0 0 0 0
-354 -117 0 0 0 0 0 0 0 0 0 0 0 0 0 0 0 0 -79 -79 -66 -72 -121 -107 -65 0 0 0 0 0 0 0 0 0 0 0 0 0 0 0 0 0 0
-366 -403 0 0 0 0 0 0 0 0 0 0 0 0 0 0 0 0 -110 -89 -76 -83 -78 -110 -68 0 0 0 0 0 0 0 0 0 0 0 0 0 0 0 0 0 0
-360 -442 -416 0 0 0 0 0 0 0 0 0 0 0 0 0 0 0 -97 -95 -90 -70 -71 -109 -49 0 0 0 0 0 0 0 0 0 0 0 0 0 0 0 0 0 0
-349 0 0 0 0 0 0 0 0 0 -112 -136 -128 -134 0 0 0 -127 -85 -71 -85 -83 -69 -93 -161 0 0 0 0 0 0 0 0 0 0 0 0 0 0 0 0 0 0
-345 -271 0 0 0 0 0 0 0 -47 -128 -118 -133 -165 0 0 0 -137 -120 -106 -109 -94 -111 -134 -64 0 0 0 0 0 0 0 0 0 0 0 0 0 0 0 0 0 0
-330 -323 -114 0 0 0 0 0 0 -249 -168 -120 -109 -79 0 0 0 -138 -146 -150 -205 -213 -235 -178 0 0 0 0 0 0 0 0 0 0 0 0 0 0 0 0 0 0 0
-301 -322 -347 -385 -284 0 0 0 -229 -183 -118 -124 -128 -221 -266 0 -214 -229 -182 -208 -220 -231 -34 0 0 0 0 0 0 0 0 0 0 0 0 0 0 0 0 0 0 0 0
-229 -254 -269 -316 -347 -328 -392 -340 -202 -183 -135 -182 -156 -263 -220 -256 -262 -264 -250 -255 -279 0 0 0 0 0 0 0 0 0 0 0 0 0 0 0 0 0 0 0 0 0 0
-165 -154 -164 -247 -311 -304 -321 -310 -238 -216 -213 -163 -201 -164 -206 -190 -218 -215 -256 -175 -97 0 0 0 0 0 0 0 0 0 0 0 0 0 0 0 0 0 0 0 0 0 0
-136 -139 0 -152 -205 -237 -287 -274 -253 -201 -162 -161 -179 -155 -173 -166 -136 -237 0 0 0 0 0 0 0 0 0 0 0 0 0 0 0 0 0 0 0 0 0 0 0 0 0
0 -50 -107 0 -204 -200 -219 -228 -222 -177 -99 -145 -176 -139 -194 -270 -148 0 0 0 0 0 0 0 0 0 0 0 0 0 0 0 0 0 0 0 0 0 0 0 0 0 0
0 0 -87 -94 -74 -191 -198 -160 -180 -261 -188 -232 -173 -351 0 0 0 0 0 0 0 0 0 0 0 0 0 0 0 0 0 0 0 0 0 0 0 0 0 0 0 0 0
0 -66 -206 -152 -185 -367 -418 -457 -253 -212 0 0 0 0 0 0 0 0 0 0 0 0 0 0 0 0 0 0 0 0 0 0 0 0 0 0 0 0 0 0 0 0 0
0 0 -28 -66 -473 -692 0 0 0 0 0 0 0 0 0 0 0 0 0 0 0 0 0 0 0 0 0 0 0 0 0 0 0 0 0 0 0 0 -16 0 0 0 0
0 -148 -130 -309 -419 -414 0 0 0 0 0 0 0 0 0 0 0 0 0 0 0 0 0 0 0 0 0 0 0 0 0 0 0 0 0 0 0 0 0 0 0 0 0
0 -166 -241 -381 -328 0 0 0 0 0 0 0 0 0 0 0 0 0 0 0 0 0 0 0 0 0 0 0 0 0 0 0 0 0 0 0 0 0 0 0 0 0 0
0 -301 -501 0 0 0 0 0 0 0 0 0 0 0 0 0 0 0 0 0 0 0 0 0 0 0 0 0 0 0 0 0 0 0 0 0 0 0 0 0 0 0 0
-338 -300 0 0 0 0 0 0 0 0 0 0 0 0 0 0 0 0 0 0 0 0 0 0 0 0 0 0 0 0 0 0 0 0 0 0 0 0 0 0 0 0 0
0 0 0 0 0 0 0 0 0 0 0 0 0 0 0 0 0 0 0 0 0 0 0 0 0 0 0 0 0 0 0 0 0 0 0 0 0 0 0 0 0 0 0
0 0 0 0 0 0 0 0 0 0 0 0 0 0 0 0 0 0 0 0 0 0 0 0 0 0 0 0 0 0 0 0 0 0 0 0 0 0 0 0 0 0 -1
0 0 0 0 0 0 0 0 0 0 0 0 0 0 0 0 0 0 0 0 0 0 0 0 0 0 0 0 0 0 0 0 0 0 0 0 0 0 0 0 0 0 0
0 0 0 0 0 0 0 0 0 0 0 0 0 0 0 0 0 0 0 0 0 0 0 0 0 0 0 0 0 0 0 0 0 0 0 0 0 0 0 0 0 0 0
0 0 0 0 0 0 0 0 0 0 0 0 0 0 0 0 0 0 0 0 0 0 0 0 0 0 0 0 0 0 0 0 0 0 0 0 0 0 0 0 0 0 0
0 0 0 0 0 0 0 0 0 0 0 0 0 0 0 0 0 0 0 0 0 0 0 0 0 0 0 0 0 0 0 0 0 0 0 0 0 0 0 0 0 0 0
0 0 0 0 0 0 0 0 0 0 0 0 0 0 0 0 0 0 0 0 0 0 0 0 0 0 0 0 0 0 0 0 0 0 0 0 0 0 0 0 0 0 0
Wind_Speed
16 16 14 12 10 11 11 11 12 10 8 5 6 6 5 6 8 8 10 10 7 7 6 4 5 5 6 6 6 4 5 1 3 4 1 3 3 5 5 5 5 5 6
17 18 16 15 13 13 12 14 13 13 9 8 9 5 7 7 8 5 8 10 9 8 7 6 5 7 5 6 6 5 3 4 4 4 2 1 3 3 4 4 5 7 4
22 19 19 19 15 15 14 15 15 15 14 13 8 6 3 3 3 4 4 7 11 10 9 7 5 8 6 6 6 7 8 5 3 4 5 2 4 0 1 5 4 5 4
19 22 20 19 19 18 17 18 16 17 16 17 13 13 10 8 9 7 7 7 10 10 11 10 8 10 7 6 8 7 5 5 5 1 3 3 4 3 1 3 2 3 4
22 23 23 22 21 20 19 18 19 18 18 17 16 13 12 10 7 6 12 12 10 11 11 12 10 9 7 5 6 5 4 4 5 3 3 3 1 2 3 3 3 2 3
22 22 23 21 22 20 19 18 19 20 20 18 20 16 13 12 8 7 10 9 8 10 11 9 8 7 6 7 7 10 7 6 4 3 2 1 3 3 3 2 4 3 3
22 21 23 23 23 24 22 18 20 20 23 21 19 16 17 13 15 10 11 11 7 5 8 7 6 4 5 6 5 5 4 6 6 4 2 2 1 1 1 4 3 4 3
20 23 25 24 24 26 24 22 21 18 15 15 19 13 17 13 10 10 9 11 10 10 7 5 6 6 6 5 6 5 5 7 7 7 4 3 3 3 4 2 2 3 2
19 21 23 24 24 23 26 25 21 20 17 10 14 15 13 15 14 10 11 9 8 8 10 9 7 5 6 7 9 8 8 7 6 5 3 2 3 4 4 5 3 4 3
12 16 17 22 22 23 23 23 22 22 22 18 13 14 15 13 10 11 10 10 10 11 10 9 9 8 9 9 9 8 8 9 5 4 4 3 3 6 6 7 4 3 4
6 4 8 18 22 21 21 20 18 18 14 16 12 13 13 14 11 6 8 7 8 10 11 10 9 10 10 10 10 10 9 8 7 5 6 6 5 6 5 4 3 3 3
9 7 2 6 14 12 15 18 16 16 12 11 8 13 10 7 7 7 10 14 8 7 11 10 10 9 9 9 10 9 7 7 7 6 5 5 6 7 7 4 6 4 5
8 7 7 3 9 8 11 12 15 14 12 11 10 6 5 10 8 9 10 9 11 9 8 10 10 10 9 9 7 7 7 6 5 4 5 7 7 6 5 5 4 4 4
6 8 7 7 7 11 11 8 8 6 7 8 9 10 9 10 8 8 9 8 10 10 10 9 10 10 9 8 6 7 5 4 4 5 6 7 7 8 7 6 7 6 5
6 4 8 7 9 11 13 12 11 9 8 11 11 10 9 11 11 9 10 11 10 9 10 10 8 8 8 6 6 5 4 4 4 5 4 4 5 7 7 4 5 6 5
6 2 5 13 10 11 11 12 12 10 10 11 11 10 11 10 10 10 10 10 10 9 9 8 8 8 5 9 8 5 3 2 2 2 4 5 6 8 11 10 8 4 4
7 8 14 10 9 9 11 12 12 11 11 12 11 10 10 10 10 11 11 10 9 8 8 8 7 6 4 9 7 6 3 3 4 6 5 5 7 7 7 9 10 7 9
7 10 11 10 10 10 11 12 11 12 12 11 11 10 10 11 11 11 10 9 9 10 8 7 6 7 5 12 11 9 6 6 5 5 6 5 5 6 9 8 8 9 9
7 8 11 12 11 11 11 11 11 12 11 11 11 11 12 12 11 10 10 8 7 5 5 5 10 10 6 11 12 9 6 6 5 5 5 5 6 9 15 9 10 11 11
9 12 14 13 12 11 11 11 12 11 11 11 11 11 10 11 10 10 9 6 5 4 7 10 9 11 9 11 12 9 4 5 3 4 4 6 6 12 14 10 10 12 13
10 8 13 12 12 12 12 12 12 11 11 11 11 10 9 9 9 8 4 5 7 8 7 9 7 9 9 9 14 13 5 3 1 2 3 3 10 15 17 15 8 11 15
10 9 9 8 9 9 10 9 9 11 11 10 9 8 8 6 5 7 6 8 8 8 6 7 7 5 5 11 13 13 9 5 2 2 3 4 16 16 15 12 14 18 13
8 8 10 9 7 9 11 11 8 11 11 9 6 6 8 7 7 7 6 5 6 6 4 4 5 6 5 5 11 11 8 7 3 2 8 15 16 15 8 10 16 10 7
7 8 10 8 7 7 10 11 10 9 10 10 8 7 8 8 8 7 7 6 5 4 3 3 4 5 4 4 2 3 3 6 5 5 6 8 10 7 3 4 6 4 6
10 10 10 11 12 13 12 10 10 12 11 11 9 8 8 9 9 8 5 5 4 4 4 2 3 3 3 3 4 5 4 2 3 3 2 4 5 3 4 4 4 6 7
11 13 16 16 14 16 15 12 12 14 14 11 8 6 6 6 5 6 6 13 8 9 10 7 5 3 7 4 5 8 10 11 11 2 2 3 3 3 5 4 5 6 7
Wind_Direction
162 159 158 154 152 162 160 166 170 166 164 158 175 187 209 198 207 213 195 187 173 164 165 172 180 186 177 183 182 167 183 169 151 110 47 282 246 183 197 185 193 187 189
159 161 160 163 175 179 174 177 179 173 184 179 190 200 198 210 204 188 177 178 174 173 177 178 188 194 172 184 186 163 161 179 173 150 119 251 329 284 216 203 202 217 181
164 167 164 170 177 187 182 181 181 184 187 195 200 212 187 193 181 194 180 186 178 179 182 193 183 200 184 191 191 182 170 176 221 162 147 144 219 210 313 252 223 193 208
165 162 171 171 178 190 188 189 190 192 199 198 201 200 200 198 209 203 195 184 183 188 187 185 188 194 193 188 192 189 175 139 171 114 155 120 147 172 261 296 258 179 214
167 171 175 176 180 185 193 195 200 208 202 200 201 202 196 197 185 179 185 188 196 191 195 190 195 192 196 189 182 188 201 165 158 185 157 130 152 155 136 257 293 328 268
175 178 178 178 185 191 198 202 207 202 202 202 205 196 192 193 195 180 186 188 192 199 198 176 188 186 183 174 162 210 198 148 151 68 26 72 157 184 175 192 268 227 272
179 182 181 183 188 194 200 204 209 209 200 206 200 193 183 189 199 188 186 180 179 191 203 169 168 174 169 171 168 184 118 121 93 92 93 51 360 45 248 166 215 229 267
186 186 190 189 193 193 195 204 210 211 205 193 202 189 197 203 197 185 182 188 188 190 180 169 155 167 173 149 120 98 79 92 101 129 123 103 348 351 282 272 174 282 274
193 194 190 193 196 195 200 199 199 208 211 188 198 203 195 201 206 194 176 179 159 174 169 161 164 152 126 114 116 123 129 129 117 112 120 147 201 247 261 271 224 174 225
171 203 203 197 198 197 195 197 200 196 197 202 193 201 206 209 195 189 170 162 168 157 159 146 130 129 123 125 123 123 129 133 146 144 153 194 215 241 245 245 233 201 198
187 223 179 206 200 197 195 196 200 204 205 204 201 189 192 197 194 164 129 126 143 137 133 135 141 135 135 139 133 142 150 148 158 172 191 218 233 248 253 244 222 228 186
186 172 136 130 184 192 199 192 189 177 210 225 210 208 184 136 115 126 153 134 139 127 131 140 140 137 142 145 146 144 148 158 176 190 205 240 253 240 243 242 242 229 234
173 170 146 130 124 188 187 184 184 195 210 216 201 130 108 111 129 140 129 127 131 121 131 129 135 139 137 129 129 143 161 174 181 186 215 239 237 258 255 241 243 245 250
171 186 168 170 125 101 105 105 77 89 89 85 106 114 114 116 111 111 114 114 114 123 120 124 128 129 135 137 151 157 146 171 210 226 232 236 243 245 249 242 239 243 239
242 244 196 141 119 107 107 93 84 83 92 95 94 89 94 104 105 98 97 99 105 113 118 120 122 131 141 149 146 154 166 199 230 254 266 271 291 282 271 280 290 290 282
146 94 96 129 130 123 116 112 110 103 99 92 97 102 102 101 102 107 105 106 107 111 116 126 131 128 135 147 164 149 160 95 74 349 344 338 327 5 37 32 36 45 349
158 97 124 128 119 117 117 113 112 111 106 109 114 116 116 116 118 117 119 121 124 127 126 128 129 143 164 182 169 150 109 64 22 20 21 8 16 18 13 2 359 352 332
134 114 121 116 111 110 109 116 120 120 120 123 125 125 125 124 129 125 128 132 137 139 143 155 151 110 87 98 102 90 78 77 61 50 43 33 5 354 359 351 342 331 317
124 120 130 123 120 123 126 124 126 120 128 131 130 135 136 133 135 137 139 134 131 144 159 162 121 115 95 88 91 92 80 68 47 30 11 3 347 350 354 340 323 315 303
129 127 133 131 131 139 137 132 127 130 133 137 137 137 139 139 138 136 143 157 158 148 105 104 109 119 113 100 105 98 104 84 32 354 346 343 350 343 335 326 316 309 304
124 109 130 139 145 144 140 134 134 139 138 136 133 133 135 135 142 150 146 127 109 107 99 104 127 119 120 108 104 99 88 97 16 346 323 307 335 329 326 327 310 295 306
127 123 117 115 129 133 129 127 130 129 121 119 124 143 152 158 138 126 111 121 121 111 114 108 104 111 109 111 96 89 83 76 70 343 314 314 326 324 326 325 326 333 323
128 119 119 111 97 101 114 112 122 122 129 133 127 111 107 107 107 100 97 93 93 102 112 117 115 129 117 84 82 67 51 40 40 329 330 325 321 320 319 333 342 334 329
98 102 106 104 104 104 109 120 124 118 106 102 88 80 81 66 55 56 64 73 71 78 83 94 107 119 112 86 61 50 30 13 351 329 327 305 296 288 294 335 331 322 328
100 104 100 84 81 88 87 99 103 102 97 86 82 66 75 83 76 65 68 87 48 78 99 70 87 102 99 79 54 18 356 296 300 305 318 299 308 327 333 330 330 338 336
106 91 94 89 72 62 53 45 75 87 90 81 73 68 63 62 85 85 72 51 76 77 90 106 118 86 123 97 23 351 334 327 327 335 285 300 310 330 337 332 340 338 337